Flag for Japan Weather past 2 weeks in Nagasaki, Japan

Now
54 °F

Cool.


Feels Like: 54 °F
Forecast: 51 / 74 °F
Wind: 1 mph from Northeast

Location: Nagasaki

Current Time: Apr 27, 2015 at 6:19:25 AM

Latest Report: Apr 27, 2015 at 5:00 AM


Visibility: N/A

Pressure: 30.13 "Hg

Humidity: 63%

Dew point: 41 °F

Location of NagasakiLocation

Historic Weather in Nagasaki — Graph

°F

Nagasaki temperature yesterday

Maximum temperature yesterday: 72 °F (at 1:00 PM)
Minimum temperature yesterday: 53 °F (at 5:00 AM)
Average temperature yesterday: 62 °F

Past Weeks' High & Low Weather Summary

 TemperatureHumidityPressure
High74 °F (Apr 25, 4:00 PM)100% (Apr 20, 2:00 PM)30.21 "Hg (Apr 20, 2:00 PM)
Low48 °F (Apr 14, 2:00 PM)18% (Apr 25, 4:00 PM)29.58 "Hg (Apr 20, 3:00 AM)
Average60 °F68%29.98 "Hg
* Reported Apr 12 5:00 AM — Apr 27 5:00 AM, Nagasaki, Weather by CustomWeather, © 2015

Note: Actual official high and low records may vary slightly from our data, if they occured in-between our weather recording intervals... More about our weather records

Advertising

Nagasaki weather history for previous 24 hours

 ConditionsComfort  
Time TempWeatherWind HumidityBarometerVisibility
5:00 AM
Mon, Apr 27
54 °FCool.1 mph63%30.13 "HgN/A
4:00 AM54 °FCool.2 mph62%30.12 "HgN/A
3:00 AM55 °FPassing clouds.2 mph63%30.12 "Hg12 mi
2:00 AM56 °FCool.2 mph68%30.13 "HgN/A
1:00 AM56 °FCool.1 mph67%30.14 "HgN/A
12:00 AM58 °FCool.2 mph65%30.15 "HgN/A
11:00 PM
Sun, Apr 26
59 °FCool.No wind70%30.15 "HgN/A
10:00 PM60 °FCool.1 mph71%30.14 "HgN/A
9:00 PM61 °FClear.1 mph70%30.14 "Hg12 mi
8:00 PM63 °FMild.2 mph68%30.12 "HgN/A
7:00 PM66 °FMild.6 mph61%30.11 "HgN/A
6:00 PM68 °FPassing clouds.7 mph54%30.11 "Hg9 mi
5:00 PM71 °FMild.7 mph43%30.10 "HgN/A
4:00 PM71 °FMild.8 mph34%30.11 "HgN/A
3:00 PM72 °FPassing clouds.8 mph31%30.12 "Hg12 mi
2:00 PM72 °FMild.8 mph31%30.14 "HgN/A
1:00 PM72 °FMild.8 mph30%30.15 "HgN/A
11:00 AM71 °FMild.8 mph35%30.17 "HgN/A
10:00 AM71 °FMild.5 mph30%30.17 "HgN/A
9:00 AM65 °FScattered clouds.1 mph41%30.18 "Hg12 mi
8:00 AM58 °FRefreshingly cool.1 mph51%30.17 "HgN/A
7:00 AM54 °FCool.2 mph52%30.17 "HgN/A
6:00 AM53 °FPassing clouds.2 mph52%30.16 "Hg9 mi
Weather by CustomWeather, © 2015

See weather overviewHow to use our weather pages